Location: York
(31.8935°S, 116.7682°E)
Time: 18:32:33
(UTC+08:00)

Tianhe-1 - Visible Passes

Search period start: 13 May 2021 00:00
Search period end: 23 May 2021 00:00
Orbit: 351 x 385 km, 41.5° (Epoch: 11 May)

Date Brightness Start Highest point End Pass type
(mag) Time Alt. Az. Time Alt. Az. Time Alt. Az.
17 May 2.9 06:23:18 10° NNW 06:26:07 32° NE 06:28:55 10° E visible
18 May 4.0 05:19:26 10° N 05:21:15 15° NE 05:23:04 10° ENE visible
19 May 1.6 05:49:47 13° NW 05:52:25 56° NNE 05:55:28 10° ESE visible
20 May 3.9 04:48:43 18° ENE 04:48:43 18° ENE 04:50:02 10° E visible
20 May 1.6 06:20:51 10° W 06:23:48 40° SSW 06:26:46 10° SE visible
21 May 1.6 05:19:18 54° SE 05:19:18 54° SE 05:21:48 10° ESE visible
22 May 2.1 05:49:41 27° SW 05:50:09 29° SSW 05:52:56 10° SE visible
